Powrót do katalogu

STARLINK-38014

AktywnyŁącznośćSSO
NORAD 69721·PAYLOAD·🇺🇸 United States

Wystrzelony Jun 28, 2026 z Vandenberg Space Force Base

Loading…

Następne Przeloty (najbliższe 24 godziny)

TLE

ŚwieżeSource: CelesTrak SupGP

Epoka: Sep 15, 2026, 04:26 UTC

1 69721C 26147T   26258.18520833 -.00049112  00000+0 -15247-2 0  2585
2 69721  97.2836 294.6565 0001027  92.4899 191.0847 15.33462517    18

Śledź STARLINK-38014 w czasie rzeczywistym z AllMySat

Download on the App Store